This is the latest recevied weather packets stored in our database for station/object CA3DPI. If no packets are shown the sender has not sent any weather packets the latest 10 day(s).
| Time | Temp. | Humidity | Pressure | Rain* | Wind** | Luminosity | Snow |
|---|---|---|---|---|---|---|---|
| 1777760216 | 25.56° C | 36% | 1018 hPa | - | - | - | - |
| 1777759616 | 26.67° C | 36% | 1017.9 hPa | - | - | - | - |
| 1777759015 | 28.33° C | 35% | 1018 hPa | - | - | - | - |
| 1777758415 | 30.56° C | 33% | 1017.9 hPa | - | - | - | - |
| 1777757815 | 32.22° C | 31% | 1017.7 hPa | - | - | - | - |
| 1777757215 | 33.33° C | 32% | 1017.7 hPa | - | - | - | - |
| 1777756615 | 35° C | 32% | 1017.6 hPa | - | - | - | - |
| 1777756068 | 35.56° C | 30% | 1017.7 hPa | - | - | - | - |
| 1777756015 | 35.56° C | 30% | 1017.7 hPa | - | - | - | - |
| 1777755415 | 36.67° C | 29% | 1017.6 hPa | - | - | - | - |
| 1777754814 | 36.67° C | 28% | 1017.5 hPa | - | - | - | - |
| 1777754221 | 37.78° C | 28% | 1017.5 hPa | - | - | - | - |
| 1777753621 | 38.33° C | 25% | 1017.4 hPa | - | - | - | - |
| 1777753021 | 38.89° C | 28% | 1017.4 hPa | - | - | - | - |
| 1777752420 | 38.89° C | 22% | 1017.4 hPa | - | - | - | - |
| 1777751820 | 40.56° C | 28% | 1017.4 hPa | - | - | - | - |
| 1777751220 | 40.56° C | 25% | 1017.5 hPa | - | - | - | - |
| 1777750620 | 39.44° C | 26% | 1017.6 hPa | - | - | - | - |
| 1777750020 | 39.44° C | 26% | 1017.4 hPa | - | - | - | - |
| 1777749419 | 38.89° C | 24% | 1017.5 hPa | - | - | - | - |
| 1777748819 | 38.89° C | 25% | 1017.5 hPa | - | - | - | - |
| 1777748219 | 37.78° C | 28% | 1017.5 hPa | - | - | - | - |
| 1777747670 | 37.78° C | 23% | 1017.5 hPa | - | - | - | - |
| 1777747619 | 37.78° C | 23% | 1017.5 hPa | - | - | - | - |
| 1777747019 | 37.78° C | 29% | 1017.6 hPa | - | - | - | - |
* Rain since midnight (hover to see other rain measurements)
** Current wind speed in m/s (hover to see current wind gust speed)